[[{"header":{"parameterUnit":"m.s-1","parameterCategory":1,"la1":30.2991,"la2":30.254,"lo1":-89.0895,"lo2":-89.0444,"dy":0.0017,"dx":0.0017,"nx":28,"ny":28,"refTime":"2023-09-09T09:00:00:Z","depth":0,"parameterNumber":2,"parameterNumberName":"U-component_of_WINDS"},"data":[0,0,0,0,0,0,0,0,0,0,0,0,0,0,0,0,0,0,0,0,0,0,0,0,0,0,0,0,0,0,0,0,0,0,0,0,0,0,0,0,0,0,0,0,0,0,0,0,0,0,0,0,0,0,0,0,0,0,-0.2146,-0.2145,0,-0.2091,-0.209,-0.2089,-0.2054,-0.2054,-0.2054,-0.2054,-0.1995,-0.1994,-0.1992,0,0,0,0,0,0,0,0,0,0,0,0,0,-0.2221,-0.222,-0.2146,-0.2145,-0.2145,-0.2091,-0.209,-0.2089,-0.2054,-0.2054,-0.2054,-0.2053,-0.1995,-0.1994,-0.1992,0,0,0,0,0,0,0,0,0,0,0,0,0,-0.2179,-0.2219,-0.2146,-0.2121,-0.2118,-0.2091,-0.209,-0.2089,-0.2054,-0.2054,-0.2054,-0.2053,-0.1996,-0.1994,-0.1992,-0.1985,0,0,-0.1986,-0.1985,0,0,0,0,0,0,0,0,-0.2182,-0.2176,-0.2125,-0.2122,-0.2119,-0.2079,-0.2095,-0.2054,-0.2054,-0.2078,-0.2054,-0.2053,-0.2023,-0.2019,-0.2009,-0.1982,-0.198,-0.1985,-0.1984,-0.1983,-0.1983,0,0,0,0,0,0,0,-0.2184,-0.2179,-0.2124,-0.2124,-0.2121,-0.2112,-0.2106,-0.2087,-0.2053,-0.2076,-0.2074,-0.2068,-0.2021,-0.2011,-0.2007,-0.1979,-0.1986,-0.1984,-0.1982,-0.1982,-0.1946,-0.1946,0,0,0,0,0,0,-0.2192,-0.2181,-0.2126,-0.2122,-0.215,-0.2111,-0.2104,-0.2092,-0.2053,-0.2047,-0.2068,-0.2066,-0.2015,-0.201,-0.2005,-0.1996,-0.1983,-0.1981,-0.198,-0.1945,-0.1946,-0.1946,0,0,0,0,0,0,-0.2193,-0.2187,-0.2128,-0.2151,-0.2143,-0.211,-0.2097,-0.2091,-0.2081,-0.2047,-0.2041,-0.2064,-0.2014,-0.2008,-0.1991,-0.1993,-0.198,-0.1979,-0.1945,-0.1945,-0.1946,-0.1976,0,0,0,0,0,0,-0.2196,-0.2188,-0.2185,-0.2151,-0.2142,-0.2115,-0.2097,-0.209,-0.2078,-0.2075,-0.2041,-0.2035,-0.2014,-0.1994,-0.1989,-0.199,-0.1977,-0.1945,-0.1945,-0.1946,-0.1975,-0.1977,-0.198,0,0,0,0,0,-0.2198,-0.2195,-0.2185,-0.2178,-0.2138,-0.2115,-0.211,-0.2085,-0.2078,-0.2075,-0.2053,-0.2036,-0.1994,-0.1993,-0.1986,-0.1987,-0.1944,-0.1945,-0.1946,-0.1974,-0.1977,-0.198,0,0,0,0,0,0,-0.2229,-0.219,-0.2179,-0.2164,-0.2143,-0.2109,-0.2105,-0.2089,-0.207,-0.2068,-0.2038,-0.2031,-0.2017,-0.2,-0.1999,-0.1979,-0.1967,-0.1967,-0.1991,-0.1993,-0.1996,-0.2,-0.1975,0,0,0,0,0,-0.2234,-0.2219,-0.2186,-0.2177,-0.2167,-0.2138,-0.2127,-0.211,-0.2087,-0.2078,-0.2055,-0.2033,-0.2015,-0.2003,-0.1984,-0.1972,-0.1965,-0.197,-0.1972,-0.1974,-0.1974,-0.1968,-0.197,-0.1948,-0.1948,-0.1948,0,0,-0.2244,-0.2221,-0.2214,-0.2182,-0.2164,-0.215,-0.213,-0.2115,-0.2104,-0.2075,-0.2058,-0.2041,-0.2014,-0.2,-0.1993,-0.1986,-0.1979,-0.1975,-0.1977,-0.1976,-0.1969,-0.1971,-0.1973,-0.1949,-0.1948,-0.1948,0,0,-0.2255,-0.2236,-0.2227,-0.221,-0.2183,-0.2164,-0.2162,-0.213,-0.2118,-0.21,-0.2079,-0.2065,-0.2034,-0.2016,-0.2003,-0.201,-0.1994,-0.2004,-0.2018,-0.2012,-0.2013,-0.2015,-0.2018,-0.2019,-0.2004,-0.2004,-0.2004,0,-0.2271,-0.2249,-0.2224,-0.2211,-0.2198,-0.2172,-0.2163,-0.2147,-0.2115,-0.2107,-0.21,-0.2061,-0.2041,-0.2023,-0.2025,-0.2015,-0.2012,-0.2008,-0.2015,-0.2016,-0.2017,-0.202,-0.2021,-0.2006,-0.2006,-0.2005,-0.2005,0,-0.227,-0.2255,-0.2251,-0.2222,-0.2209,-0.2198,-0.2171,-0.216,-0.2145,-0.2127,-0.211,-0.2085,-0.2062,-0.2056,-0.204,-0.2036,-0.2033,-0.2021,-0.2008,-0.2021,-0.2023,-0.2024,-0.2008,-0.2007,-0.2007,-0.2007,0,0,-0.2298,-0.2257,-0.2256,-0.2243,-0.2213,-0.22,-0.2188,-0.2166,-0.2158,-0.2137,-0.2127,-0.2102,-0.2091,-0.2076,-0.2058,-0.2053,-0.2061,-0.2042,-0.2041,-0.2047,-0.2056,-0.2066,-0.2067,-0.2051,-0.2051,-0.2051,-0.2058,0,-0.2306,-0.2283,-0.2261,-0.2246,-0.2233,-0.2209,-0.2198,-0.2178,-0.2161,-0.2147,-0.2128,-0.2111,-0.2097,-0.2089,-0.2082,-0.2062,-0.2063,-0.2061,-0.204,-0.204,-0.2048,-0.2068,-0.2078,-0.2086,-0.2059,-0.2059,-0.2059,0,-0.2311,-0.2293,-0.2277,-0.2249,-0.2242,-0.2233,-0.2212,-0.2199,-0.2176,-0.2164,-0.2148,-0.213,-0.2116,-0.2106,-0.2087,-0.2086,-0.2076,-0.2065,-0.2065,-0.2062,-0.2051,-0.2066,-0.2088,-0.209,-0.206,-0.206,-0.206,0,-0.2334,-0.2305,-0.2293,-0.2282,-0.2249,-0.2244,-0.2229,-0.2206,-0.2195,-0.2176,-0.2169,-0.2148,-0.2137,-0.2122,-0.2098,-0.2092,-0.2082,-0.2069,-0.2072,-0.2072,-0.2071,-0.2071,-0.2092,-0.2064,-0.2064,-0.2064,-0.2064,0,-0.2344,-0.2336,-0.2303,-0.2295,-0.2285,-0.226,-0.2251,-0.2234,-0.2214,-0.2203,-0.2181,-0.217,-0.214,-0.2126,-0.2108,-0.2096,-0.209,-0.208,-0.2076,-0.2083,-0.2084,-0.2076,-0.2075,-0.2064,-0.2064,-0.2064,-0.2064,0,-0.2368,-0.2345,-0.233,-0.2301,-0.2293,-0.2287,-0.2262,-0.2254,-0.2236,-0.2222,-0.2217,-0.2189,-0.2172,-0.2147,-0.2122,-0.211,-0.21,-0.2092,-0.2108,-0.2106,-0.211,-0.211,-0.2127,-0.2128,-0.2099,-0.2099,-0.21,0,-0.2376,-0.237,-0.234,-0.2331,-0.2318,-0.2304,-0.2293,-0.2268,-0.2257,-0.2232,-0.2227,-0.2208,-0.2192,-0.2166,-0.2143,-0.2124,-0.2115,-0.2123,-0.2112,-0.212,-0.2116,-0.2117,-0.2117,-0.2125,-0.2125,-0.2126,-0.2126,0,-0.2394,-0.2384,-0.2369,-0.235,-0.2338,-0.2321,-0.2304,-0.2298,-0.227,-0.2259,-0.2242,-0.2229,-0.2205,-0.2186,-0.2165,-0.215,-0.2133,-0.213,-0.2129,-0.2137,-0.2146,-0.2142,-0.2116,-0.2129,-0.2129,-0.2129,-0.2129,-0.2128,-0.2411,-0.2404,-0.2383,-0.2367,-0.2352,-0.2337,-0.2328,-0.231,-0.2295,-0.2274,-0.226,-0.2244,-0.2222,-0.2191,-0.2177,-0.2164,-0.2157,-0.2157,-0.2157,-0.2157,-0.216,-0.2149,-0.216,-0.216,-0.216,-0.216,-0.216,0,-0.2428,-0.2413,-0.2399,-0.2377,-0.2365,-0.2351,-0.2332,-0.2323,-0.2309,-0.229,-0.2276,-0.2256,-0.2239,-0.2216,-0.2197,-0.2191,-0.2183,-0.2187,-0.2187,-0.2184,-0.2167,-0.2169,-0.2193,-0.2193,-0.2193,-0.2193,-0.2193,-0.2193,-0.2435,-0.2424,-0.2411,-0.2392,-0.2377,-0.2362,-0.2353,-0.2339,-0.2324,-0.2304,-0.229,-0.2275,-0.2255,-0.2234,-0.2218,-0.2212,-0.2206,-0.2212,-0.2204,-0.2188,-0.2185,-0.2182,-0.2184,-0.2211,-0.2211,-0.2222,-0.2222,-0.2222]},{"header":{"parameterUnit":"m.s-1","parameterCategory":1,"la1":30.2991,"la2":30.254,"lo1":-89.0895,"lo2":-89.0444,"dy":0.0017,"dx":0.0017,"nx":28,"ny":28,"refTime":"2023-09-09T09:00:00:Z","depth":0,"parameterNumber":3,"parameterNumberName":"V-component_of_WINDS"},"data":[0,0,0,0,0,0,0,0,0,0,0,0,0,0,0,0,0,0,0,0,0,0,0,0,0,0,0,0,0,0,0,0,0,0,0,0,0,0,0,0,0,0,0,0,0,0,0,0,0,0,0,0,0,0,0,0,0,0,2.028,2.0279,0,2.0163,2.0162,2.0161,2.0071,2.007,2.007,2.0069,1.9945,1.9943,1.994,0,0,0,0,0,0,0,0,0,0,0,0,0,2.0423,2.0421,2.0281,2.0279,2.0278,2.0164,2.0162,2.016,2.0071,2.007,2.0069,2.0068,1.9946,1.9943,1.994,0,0,0,0,0,0,0,0,0,0,0,0,0,2.0339,2.042,2.0281,2.022,2.0213,2.0164,2.0162,2.016,2.0072,2.007,2.0069,2.0068,1.9947,1.9943,1.9939,1.9941,0,0,1.9928,1.9926,0,0,0,0,0,0,0,0,2.0344,2.0334,2.023,2.0224,2.0216,2.0131,2.0167,2.0086,2.0072,2.0125,2.0069,2.0067,2.0008,1.9999,1.9979,1.9935,1.993,1.9927,1.9925,1.9924,1.9922,0,0,0,0,0,0,0,2.035,2.0338,2.0234,2.0229,2.022,2.0196,2.0183,2.0151,2.0075,2.012,2.0114,2.0101,2.0003,1.9983,1.9976,1.9928,1.9928,1.9924,1.9922,1.992,1.9876,1.9878,0,0,0,0,0,0,2.0366,2.0344,2.0238,2.0231,2.0278,2.0195,2.018,2.0159,2.0075,2.0061,2.0102,2.0097,1.999,1.998,1.9971,1.9966,1.9924,1.992,1.9918,1.9875,1.9877,1.9878,0,0,0,0,0,0,2.0369,2.0357,2.0242,2.0285,2.0269,2.0194,2.0171,2.0158,2.0137,2.0061,2.0047,2.0096,1.9989,1.9976,1.9949,1.996,1.9918,1.9915,1.9874,1.9876,1.9877,1.9956,0,0,0,0,0,0,2.0373,2.0359,2.036,2.0286,2.0267,2.0224,2.0172,2.0156,2.0131,2.0124,2.0051,2.0038,1.9987,1.9955,1.9945,1.9954,1.9912,1.9873,1.9875,1.9877,1.9952,1.996,1.9967,0,0,0,0,0,2.0379,2.0386,2.036,2.0348,2.0267,2.0225,2.0214,2.0156,2.0133,2.0132,2.0083,2.004,1.9961,1.9953,1.9941,1.9949,1.9872,1.9874,1.9877,1.9949,1.9959,1.9967,0,0,0,0,0,0,2.0462,2.0375,2.0346,2.0329,2.0285,2.021,2.0207,2.0168,2.0129,2.0123,2.0052,2.0036,2.0016,1.998,1.9972,1.9945,1.9911,1.9911,1.997,1.9978,1.9986,1.9994,1.9909,0,0,0,0,0,2.0478,2.0453,2.0378,2.0371,2.035,2.0283,2.0262,2.0222,2.0173,2.0153,2.0102,2.0055,2.0019,1.9997,1.9959,1.9947,1.9928,1.9946,1.9954,1.996,1.9961,1.995,1.9957,1.9886,1.9886,1.9886,0,0,2.0512,2.0461,2.0449,2.0386,2.0347,2.0321,2.0268,2.0242,2.0221,2.0149,2.012,2.0081,2.0023,2.0003,1.9991,1.9971,1.9977,1.9964,1.997,1.9966,1.9953,1.996,1.9966,1.9888,1.9887,1.9887,0,0,2.0559,2.052,2.0509,2.0471,2.0413,2.0368,2.0365,2.0295,2.0267,2.0237,2.0181,2.0155,2.0095,2.0056,2.0028,2.0061,2.0019,2.005,2.0089,2.008,2.0085,2.009,2.01,2.0105,2.0052,2.0052,2.0052,0,2.0608,2.0568,2.0508,2.0485,2.0458,2.0392,2.038,2.0345,2.0278,2.026,2.024,2.0163,2.0119,2.0088,2.0096,2.0077,2.007,2.0058,2.009,2.0093,2.0097,2.0106,2.011,2.0056,2.0055,2.0055,2.0055,0,2.063,2.0602,2.06,2.0538,2.051,2.0493,2.0429,2.0409,2.037,2.0327,2.0296,2.0242,2.0192,2.0182,2.0144,2.0145,2.0135,2.0103,2.0067,2.0109,2.0116,2.0119,2.0062,2.006,2.0059,2.0058,0,0,2.0726,2.063,2.0631,2.0601,2.0532,2.0509,2.0488,2.044,2.0423,2.0379,2.0358,2.0309,2.0279,2.0248,2.0205,2.0196,2.0224,2.0165,2.0163,2.0177,2.022,2.0244,2.0249,2.0196,2.0197,2.0197,2.0224,0,2.0762,2.0722,2.0667,2.0645,2.0618,2.0555,2.0536,2.0491,2.045,2.042,2.0374,2.034,2.0303,2.0284,2.0273,2.0223,2.0231,2.022,2.0175,2.0174,2.0191,2.0252,2.0277,2.0306,2.0227,2.0227,2.0228,0,2.0798,2.0758,2.0734,2.0666,2.0653,2.0637,2.0589,2.0561,2.0508,2.0479,2.0444,2.0397,2.037,2.0339,2.03,2.0294,2.0272,2.0244,2.0244,2.0237,2.0203,2.0246,2.0313,2.0317,2.0232,2.0231,2.0231,0,2.087,2.081,2.0787,2.0763,2.0684,2.0675,2.0641,2.0586,2.0561,2.0518,2.0501,2.0455,2.043,2.0395,2.0336,2.0319,2.0303,2.0267,2.0276,2.0278,2.0275,2.0276,2.0339,2.0263,2.0263,2.0263,2.0263,0,2.0915,2.0902,2.0818,2.0804,2.0787,2.0723,2.0708,2.0668,2.062,2.0596,2.0538,2.0517,2.0442,2.0411,2.0365,2.0339,2.0328,2.0302,2.029,2.0307,2.031,2.0291,2.0287,2.0264,2.0264,2.0264,2.0264,0,2.0992,2.0935,2.0906,2.0833,2.0814,2.0805,2.0742,2.0725,2.0681,2.0651,2.064,2.057,2.0531,2.0469,2.0412,2.0381,2.0362,2.0342,2.038,2.0372,2.0385,2.0384,2.0437,2.044,2.0364,2.0365,2.0366,0,2.1024,2.1013,2.0939,2.0919,2.0888,2.0857,2.0831,2.0767,2.0742,2.068,2.067,2.0627,2.0588,2.0528,2.0471,2.0426,2.0404,2.0426,2.0397,2.0414,2.0403,2.0404,2.0402,2.0432,2.0433,2.0434,2.0435,0,2.1087,2.1059,2.1024,2.098,2.095,2.0912,2.087,2.0857,2.0784,2.0758,2.0718,2.0688,2.0629,2.0586,2.0533,2.0496,2.0453,2.0445,2.0444,2.0461,2.0483,2.047,2.0397,2.0444,2.0443,2.0442,2.0442,2.0441,2.1141,2.1128,2.1074,2.1036,2.0999,2.0961,2.0941,2.0895,2.086,2.0808,2.0772,2.0734,2.0679,2.0604,2.057,2.0537,2.0519,2.0518,2.0518,2.0519,2.0524,2.0489,2.0527,2.0527,2.0527,2.0527,2.0526,0,2.12,2.1162,2.1129,2.1072,2.1043,2.1006,2.0958,2.0935,2.0903,2.0856,2.082,2.0772,2.073,2.067,2.0622,2.0608,2.0587,2.0598,2.0597,2.0589,2.0544,2.0549,2.0615,2.0615,2.0615,2.0615,2.0615,2.0615,2.1227,2.1202,2.1168,2.1123,2.1084,2.1047,2.1023,2.0987,2.0949,2.09,2.0865,2.0826,2.0773,2.0722,2.0681,2.0664,2.0648,2.0665,2.0642,2.0601,2.0593,2.0585,2.0589,2.0663,2.0663,2.0689,2.069,2.069]}]]